﻿測定場所 (Monitoring sites),日付 (Measurement date),時間 (Measurement time),線量率 最大値 (max) μGy/h,線量率 最小値 (min) μGy/h,線量率 平均値 (average) μGy/h,
大田 (Ota),2014-02-09,23:01～24:00,0.0381,0.0342,0.0365,
大田 (Ota),2014-02-09,22:01～23:00,0.0385,0.0341,0.0365,
大田 (Ota),2014-02-09,21:01～22:00,0.0385,0.0348,0.0364,
大田 (Ota),2014-02-09,20:01～21:00,0.0384,0.0344,0.0362,
大田 (Ota),2014-02-09,19:01～20:00,0.0379,0.0337,0.0359,
大田 (Ota),2014-02-09,18:01～19:00,0.0377,0.0345,0.0358,
大田 (Ota),2014-02-09,17:01～18:00,0.0374,0.0336,0.0357,
大田 (Ota),2014-02-09,16:01～17:00,0.0376,0.0336,0.0357,
大田 (Ota),2014-02-09,15:01～16:00,0.0392,0.0334,0.0350,
大田 (Ota),2014-02-09,14:01～15:00,0.0371,0.0332,0.0350,
大田 (Ota),2014-02-09,13:01～14:00,0.0362,0.0313,0.0342,
大田 (Ota),2014-02-09,12:01～13:00,0.0358,0.0321,0.0338,
大田 (Ota),2014-02-09,11:01～12:00,0.0354,0.0311,0.0329,
大田 (Ota),2014-02-09,10:01～11:00,0.0353,0.0304,0.0320,
大田 (Ota),2014-02-09,09:01～10:00,0.0340,0.0289,0.0317,
大田 (Ota),2014-02-09,08:01～09:00,0.0326,0.0292,0.0307,
大田 (Ota),2014-02-09,07:01～08:00,0.0324,0.0284,0.0305,
大田 (Ota),2014-02-09,06:01～07:00,0.0321,0.0283,0.0302,
大田 (Ota),2014-02-09,05:01～06:00,0.0316,0.0280,0.0299,
大田 (Ota),2014-02-09,04:01～05:00,0.0316,0.0277,0.0298,
大田 (Ota),2014-02-09,03:01～04:00,0.0323,0.0287,0.0300,
大田 (Ota),2014-02-09,02:01～03:00,0.0342,0.0281,0.0312,
大田 (Ota),2014-02-09,01:01～02:00,0.0344,0.0303,0.0325,
大田 (Ota),2014-02-09,00:01～01:00,0.0350,0.0309,0.0328,
大田 (Ota),2014-02-08,23:01～24:00,0.0347,0.0319,0.0331,
大田 (Ota),2014-02-08,22:01～23:00,0.0355,0.0321,0.0335,
大田 (Ota),2014-02-08,21:01～22:00,0.0433,0.0328,0.0367,
大田 (Ota),2014-02-08,20:01～21:00,0.0492,0.0386,0.0443,
大田 (Ota),2014-02-08,19:01～20:00,0.0518,0.0431,0.0469,
大田 (Ota),2014-02-08,18:01～19:00,0.0541,0.0432,0.0492,
大田 (Ota),2014-02-08,17:01～18:00,0.0547,0.0477,0.0512,
大田 (Ota),2014-02-08,16:01～17:00,0.0533,0.0468,0.0506,
大田 (Ota),2014-02-08,15:01～16:00,0.0548,0.0475,0.0508,
大田 (Ota),2014-02-08,14:01～15:00,0.0540,0.0444,0.0497,
大田 (Ota),2014-02-08,13:01～14:00,0.0505,0.0441,0.0481,
大田 (Ota),2014-02-08,12:01～13:00,0.0516,0.0446,0.0485,
大田 (Ota),2014-02-08,11:01～12:00,0.0527,0.0449,0.0483,
大田 (Ota),2014-02-08,10:01～11:00,0.0503,0.0446,0.0475,
大田 (Ota),2014-02-08,09:01～10:00,0.0528,0.0451,0.0490,
大田 (Ota),2014-02-08,08:01～09:00,0.0508,0.0437,0.0472,
大田 (Ota),2014-02-08,07:01～08:00,0.0502,0.0418,0.0461,
大田 (Ota),2014-02-08,06:01～07:00,0.0495,0.0425,0.0463,
大田 (Ota),2014-02-08,05:01～06:00,0.0499,0.0443,0.0470,
大田 (Ota),2014-02-08,04:01～05:00,0.0510,0.0436,0.0472,
大田 (Ota),2014-02-08,03:01～04:00,0.0504,0.0440,0.0472,
大田 (Ota),2014-02-08,02:01～03:00,0.0491,0.0400,0.0452,
大田 (Ota),2014-02-08,01:01～02:00,0.0483,0.0412,0.0442,
大田 (Ota),2014-02-08,00:01～01:00,0.0471,0.0404,0.0444,
大田 (Ota),2014-02-07,23:01～24:00,0.0484,0.0413,0.0441,
大田 (Ota),2014-02-07,22:01～23:00,0.0473,0.0412,0.0445,
大田 (Ota),2014-02-07,21:01～22:00,0.0475,0.0412,0.0443,
大田 (Ota),2014-02-07,20:01～21:00,0.0476,0.0403,0.0444,
大田 (Ota),2014-02-07,19:01～20:00,0.0470,0.0420,0.0443,
大田 (Ota),2014-02-07,18:01～19:00,0.0472,0.0412,0.0444,
大田 (Ota),2014-02-07,17:01～18:00,0.0469,0.0415,0.0443,
大田 (Ota),2014-02-07,16:01～17:00,0.0479,0.0420,0.0444,
大田 (Ota),2014-02-07,15:01～16:00,0.0475,0.0416,0.0443,
大田 (Ota),2014-02-07,14:01～15:00,0.0472,0.0412,0.0441,
大田 (Ota),2014-02-07,13:01～14:00,0.0484,0.0400,0.0443,
大田 (Ota),2014-02-07,12:01～13:00,0.0481,0.0411,0.0446,
大田 (Ota),2014-02-07,11:01～12:00,0.0472,0.0414,0.0447,
大田 (Ota),2014-02-07,10:01～11:00,0.0474,0.0417,0.0445,
大田 (Ota),2014-02-07,09:01～10:00,0.0477,0.0416,0.0442,
大田 (Ota),2014-02-07,08:01～09:00,0.0478,0.0421,0.0444,
大田 (Ota),2014-02-07,07:01～08:00,0.0475,0.0410,0.0444,
大田 (Ota),2014-02-07,06:01～07:00,0.0470,0.0405,0.0442,
大田 (Ota),2014-02-07,05:01～06:00,0.0490,0.0415,0.0444,
大田 (Ota),2014-02-07,04:01～05:00,0.0474,0.0415,0.0442,
大田 (Ota),2014-02-07,03:01～04:00,0.0480,0.0409,0.0441,
大田 (Ota),2014-02-07,02:01～03:00,0.0485,0.0411,0.0445,
大田 (Ota),2014-02-07,01:01～02:00,0.0480,0.0419,0.0443,
大田 (Ota),2014-02-07,00:01～01:00,0.0482,0.0408,0.0442,
大田 (Ota),2014-02-06,23:01～24:00,0.0479,0.0407,0.0439,
大田 (Ota),2014-02-06,22:01～23:00,0.0477,0.0410,0.0445,
大田 (Ota),2014-02-06,21:01～22:00,0.0471,0.0399,0.0441,
大田 (Ota),2014-02-06,20:01～21:00,0.0477,0.0412,0.0441,
大田 (Ota),2014-02-06,19:01～20:00,0.0481,0.0409,0.0446,
大田 (Ota),2014-02-06,18:01～19:00,0.0480,0.0406,0.0442,
大田 (Ota),2014-02-06,17:01～18:00,0.0481,0.0405,0.0441,
大田 (Ota),2014-02-06,16:01～17:00,0.0464,0.0398,0.0440,
大田 (Ota),2014-02-06,15:01～16:00,0.0468,0.0408,0.0442,
大田 (Ota),2014-02-06,14:01～15:00,0.0469,0.0405,0.0441,
大田 (Ota),2014-02-06,13:01～14:00,0.0474,0.0401,0.0436,
大田 (Ota),2014-02-06,12:01～13:00,0.0473,0.0404,0.0441,
大田 (Ota),2014-02-06,11:01～12:00,0.0480,0.0406,0.0441,
大田 (Ota),2014-02-06,10:01～11:00,0.0475,0.0408,0.0444,
大田 (Ota),2014-02-06,09:01～10:00,0.0499,0.0417,0.0442,
大田 (Ota),2014-02-06,08:01～09:00,0.0474,0.0413,0.0438,
大田 (Ota),2014-02-06,07:01～08:00,0.0479,0.0404,0.0435,
大田 (Ota),2014-02-06,06:01～07:00,0.0471,0.0404,0.0440,
大田 (Ota),2014-02-06,05:01～06:00,0.0468,0.0411,0.0440,
大田 (Ota),2014-02-06,04:01～05:00,0.0471,0.0409,0.0440,
大田 (Ota),2014-02-06,03:01～04:00,0.0464,0.0411,0.0438,
大田 (Ota),2014-02-06,02:01～03:00,0.0482,0.0414,0.0438,
大田 (Ota),2014-02-06,01:01～02:00,0.0469,0.0395,0.0437,
大田 (Ota),2014-02-06,00:01～01:00,0.0468,0.0399,0.0442,
大田 (Ota),2014-02-05,23:01～24:00,0.0464,0.0406,0.0439,
大田 (Ota),2014-02-05,22:01～23:00,0.0475,0.0407,0.0437,
大田 (Ota),2014-02-05,21:01～22:00,0.0472,0.0406,0.0436,
大田 (Ota),2014-02-05,20:01～21:00,0.0486,0.0400,0.0437,
大田 (Ota),2014-02-05,19:01～20:00,0.0483,0.0399,0.0436,
大田 (Ota),2014-02-05,18:01～19:00,0.0472,0.0407,0.0439,
大田 (Ota),2014-02-05,17:01～18:00,0.0471,0.0416,0.0442,
大田 (Ota),2014-02-05,16:01～17:00,0.0497,0.0406,0.0441,
大田 (Ota),2014-02-05,15:01～16:00,0.0477,0.0408,0.0444,
大田 (Ota),2014-02-05,14:01～15:00,0.0479,0.0410,0.0441,
大田 (Ota),2014-02-05,13:01～14:00,0.0468,0.0413,0.0444,
大田 (Ota),2014-02-05,12:01～13:00,0.0470,0.0417,0.0442,
大田 (Ota),2014-02-05,11:01～12:00,0.0470,0.0412,0.0445,
大田 (Ota),2014-02-05,10:01～11:00,0.0481,0.0409,0.0446,
大田 (Ota),2014-02-05,09:01～10:00,0.0481,0.0415,0.0443,
大田 (Ota),2014-02-05,08:01～09:00,0.0473,0.0414,0.0441,
大田 (Ota),2014-02-05,07:01～08:00,0.0466,0.0406,0.0438,
大田 (Ota),2014-02-05,06:01～07:00,0.0474,0.0412,0.0440,
大田 (Ota),2014-02-05,05:01～06:00,0.0465,0.0413,0.0438,
大田 (Ota),2014-02-05,04:01～05:00,0.0489,0.0417,0.0445,
大田 (Ota),2014-02-05,03:01～04:00,0.0472,0.0414,0.0442,
大田 (Ota),2014-02-05,02:01～03:00,0.0470,0.0418,0.0443,
大田 (Ota),2014-02-05,01:01～02:00,0.0463,0.0403,0.0439,
大田 (Ota),2014-02-05,00:01～01:00,0.0477,0.0390,0.0442,
大田 (Ota),2014-02-04,23:01～24:00,0.0471,0.0412,0.0440,
大田 (Ota),2014-02-04,22:01～23:00,0.0472,0.0401,0.0438,
大田 (Ota),2014-02-04,21:01～22:00,0.0474,0.0414,0.0440,
大田 (Ota),2014-02-04,20:01～21:00,0.0484,0.0424,0.0457,
大田 (Ota),2014-02-04,19:01～20:00,0.0565,0.0452,0.0507,
大田 (Ota),2014-02-04,18:01～19:00,0.0721,0.0534,0.0623,
大田 (Ota),2014-02-04,17:01～18:00,0.0729,0.0584,0.0651,
大田 (Ota),2014-02-04,16:01～17:00,0.0617,0.0548,0.0591,
大田 (Ota),2014-02-04,15:01～16:00,0.0585,0.0464,0.0539,
大田 (Ota),2014-02-04,14:01～15:00,0.0539,0.0461,0.0491,
大田 (Ota),2014-02-04,13:01～14:00,0.0613,0.0490,0.0557,
大田 (Ota),2014-02-04,12:01～13:00,0.0630,0.0535,0.0576,
大田 (Ota),2014-02-04,11:01～12:00,0.0591,0.0466,0.0514,
大田 (Ota),2014-02-04,10:01～11:00,0.0509,0.0434,0.0470,
大田 (Ota),2014-02-04,09:01～10:00,0.0497,0.0413,0.0453,
大田 (Ota),2014-02-04,08:01～09:00,0.0487,0.0426,0.0456,
大田 (Ota),2014-02-04,07:01～08:00,0.0491,0.0431,0.0458,
大田 (Ota),2014-02-04,06:01～07:00,0.0503,0.0427,0.0468,
大田 (Ota),2014-02-04,05:01～06:00,0.0507,0.0438,0.0478,
大田 (Ota),2014-02-04,04:01～05:00,0.0496,0.0438,0.0461,
大田 (Ota),2014-02-04,03:01～04:00,0.0493,0.0419,0.0459,
大田 (Ota),2014-02-04,02:01～03:00,0.0489,0.0429,0.0457,
大田 (Ota),2014-02-04,01:01～02:00,0.0510,0.0434,0.0466,
大田 (Ota),2014-02-04,00:01～01:00,0.0493,0.0430,0.0465,
大田 (Ota),2014-02-03,23:01～24:00,0.0517,0.0433,0.0463,
大田 (Ota),2014-02-03,22:01～23:00,0.0478,0.0428,0.0453,
大田 (Ota),2014-02-03,21:01～22:00,0.0487,0.0420,0.0456,
大田 (Ota),2014-02-03,20:01～21:00,0.0494,0.0423,0.0455,
大田 (Ota),2014-02-03,19:01～20:00,0.0483,0.0419,0.0455,
大田 (Ota),2014-02-03,18:01～19:00,0.0494,0.0435,0.0463,
大田 (Ota),2014-02-03,17:01～18:00,0.0486,0.0426,0.0457,
大田 (Ota),2014-02-03,16:01～17:00,0.0485,0.0425,0.0457,
大田 (Ota),2014-02-03,15:01～16:00,0.0486,0.0425,0.0458,
大田 (Ota),2014-02-03,14:01～15:00,0.0488,0.0425,0.0457,
大田 (Ota),2014-02-03,13:01～14:00,0.0503,0.0423,0.0463,
大田 (Ota),2014-02-03,12:01～13:00,0.0498,0.0427,0.0461,
大田 (Ota),2014-02-03,11:01～12:00,0.0501,0.0433,0.0467,
大田 (Ota),2014-02-03,10:01～11:00,0.0510,0.0437,0.0471,
大田 (Ota),2014-02-03,09:01～10:00,0.0491,0.0429,0.0461,
大田 (Ota),2014-02-03,08:01～09:00,0.0508,0.0430,0.0456,
大田 (Ota),2014-02-03,07:01～08:00,0.0496,0.0427,0.0460,
大田 (Ota),2014-02-03,06:01～07:00,0.0486,0.0421,0.0459,
大田 (Ota),2014-02-03,05:01～06:00,0.0502,0.0429,0.0455,
大田 (Ota),2014-02-03,04:01～05:00,0.0508,0.0423,0.0456,
大田 (Ota),2014-02-03,03:01～04:00,0.0481,0.0432,0.0457,
大田 (Ota),2014-02-03,02:01～03:00,0.0490,0.0402,0.0456,
大田 (Ota),2014-02-03,01:01～02:00,0.0485,0.0409,0.0453,
大田 (Ota),2014-02-03,00:01～01:00,0.0488,0.0406,0.0452,
